Weather History for Bismarck, ND

Change the Weather History Date:

Thursday, September 6, 2012

  Actual Average Record
Temperature  
Mean Temperature 60 °F 63 °F  
Max Temperature 75 °F 76 °F 103 °F (1978)
Min Temperature 44 °F 49 °F 32 °F (1956)
Degree Days  
Heating Degree Days 5 4  
Month to date heating degree days 8 22  
Since 1 July heating degree days 34 77  
Cooling Degree Days 0 2  
Month to date cooling degree days 21 16  
Year to date cooling degree days 587 497  
Growing Degree Days 10 (Base 50)    
Moisture  
Dew Point 45 °F    
Average Humidity 59    
Maximum Humidity 83    
Minimum Humidity 35    
Precipitation  
Precipitation T in 0.06 in 2.12 in (2010)
Month to date precipitation T 0.37  
Year to date precipitation 12.13 14.18  
Snow  
Snow 0.00 in 0.00 in 0.00 in (2002)
Month to date snowfall 0.0 0.0  
Since 1 July snowfall 0.0 0.0  
Since 1 September snowfall 0.0 0.0  
Snow Depth 0.00 in    
Sea Level Pressure  
Sea Level Pressure 29.97 in    
Wind  
Wind Speed 6 mph (NE)    
Max Wind Speed 20 mph    
Max Gust Speed 23 mph    
Visibility 10 miles    
Events Rain    
T = Trace of Precipitation, MM = Missing Value Source: NWS Daily Summary

Daily Weather History Graph

Daily Weather History Graph

Search for Another Location

Airport:

Trip Planner

Search our weather history database for the weather conditions in past years. The results will help you decide how hot, cold, wet, or windy it might be!

Date:

Astronomy

Sep. 06, 2012 Rise Set
Actual Time 7:09 AM CDT 8:11 PM CDT
Civil Twilight 6:38 AM CDT 8:42 PM CDT
Nautical Twilight 6:01 AM CDT 9:19 PM CDT
Astronomical Twilight 5:22 AM CDT 9:58 PM CDT
Moon 10:57 PM CDT (9/6) 1:36 PM CDT (9/6)
Length of Visible Light 14h 03m
Length of Day
13h 01m
Waning Gibbous, 67% of the Moon is Illuminated
Sep 6
Waning Gibbous
Sep 8
Last Quarter
Sep 15
New
Sep 22
First Quarter
Sep 29
Full

Hourly Weather History & Observations

Time (CDT) Temp. Windchill Dew Point Humidity Pressure Visibility Wind Dir Wind Speed Gust Speed Precip Events Conditions
12:52 AM 53.1 °F - 42.1 °F 66% 29.92 in 10.0 mi NE 8.1 mph - N/A   Clear
1:52 AM 50.0 °F - 42.1 °F 74% 29.92 in 10.0 mi NE 6.9 mph - N/A   Clear
2:52 AM 50.0 °F - 41.0 °F 71% 29.91 in 10.0 mi NE 5.8 mph - N/A   Clear
3:52 AM 48.0 °F - 41.0 °F 77% 29.91 in 10.0 mi ENE 3.5 mph - N/A   Clear
4:52 AM 46.0 °F 44.8 °F 41.0 °F 83% 29.92 in 10.0 mi NE 3.5 mph - N/A   Clear
5:52 AM 44.1 °F - 39.9 °F 85% 29.93 in 10.0 mi Calm Calm - N/A   Clear
6:52 AM 44.1 °F - 39.9 °F 85% 29.94 in 10.0 mi Calm Calm - N/A   Clear
7:52 AM 48.9 °F - 43.0 °F 80% 29.95 in 10.0 mi Calm Calm - N/A   Partly Cloudy
8:52 AM 54.0 °F - 44.1 °F 69% 29.96 in 10.0 mi Calm Calm - N/A   Clear
9:52 AM 57.0 °F - 45.0 °F 64% 29.96 in 8.0 mi ESE 4.6 mph - N/A   Mostly Cloudy
10:52 AM 62.1 °F - 48.0 °F 60% 29.98 in 10.0 mi Calm Calm - N/A   Overcast
11:52 AM 64.0 °F - 48.0 °F 56% 29.99 in 10.0 mi NNE 11.5 mph - 0.00 in Rain Light Rain
12:52 PM 66.9 °F - 46.9 °F 49% 29.97 in 10.0 mi ENE 10.4 mph - 0.00 in   Partly Cloudy
1:52 PM 68.0 °F - 46.9 °F 47% 29.97 in 10.0 mi NNE 6.9 mph - N/A   Scattered Clouds
2:52 PM 69.1 °F - 48.0 °F 47% 29.96 in 10.0 mi East 6.9 mph - N/A   Clear
3:52 PM 73.0 °F - 45.0 °F 37% 29.96 in 10.0 mi Variable 5.8 mph - N/A   Partly Cloudy
4:52 PM 73.0 °F - 44.1 °F 35% 29.96 in 10.0 mi NW 6.9 mph - N/A   Overcast
5:52 PM 73.9 °F - 46.0 °F 37% 29.96 in 10.0 mi NNW 6.9 mph - N/A   Mostly Cloudy
6:52 PM 71.1 °F - 46.9 °F 42% 29.98 in 10.0 mi North 13.8 mph - N/A   Partly Cloudy
7:52 PM 66.9 °F - 48.0 °F 51% 30.01 in 10.0 mi NNE 10.4 mph - N/A   Clear
8:52 PM 63.0 °F - 48.0 °F 58% 30.03 in 10.0 mi North 9.2 mph - N/A   Clear
9:52 PM 60.8 °F - 46.4 °F 59% 30.05 in 10.0 mi North 10.4 mph - N/A   Clear
10:52 PM 57.0 °F - 46.0 °F 67% 30.08 in 10.0 mi NNE 5.8 mph - N/A   Clear
11:52 PM 57.0 °F - 45.0 °F 64% 30.10 in 10.0 mi North 6.9 mph - N/A   Mostly Cloudy